IS0KST Weather Reports


time (UTC)temp
C
wind
direction
speed
KPH
gust
KPH
rain 1hr
cm
rain 24hr
cm
rain mn
cm
humidity
%
barometer
mb
20260508072503 18 296 6.4 14.5 0.00 0.58 0.58 82 1012.0
20260508071503 17 281 9.7 14.5 0.00 0.58 0.58 83 1012.0
20260508071004 17 290 4.8 14.5 0.03 0.58 0.58 84 1011.9
20260508070504 17 296 9.7 14.5 0.03 0.58 0.58 85 1011.9
20260508070004 17 288 6.4 14.5 0.03 0.58 0.58 86 1011.9
20260508065504 17 279 4.8 12.9 0.03 0.58 0.58 87 1011.9
20260508065004 16 294 6.4 12.9 0.03 0.58 0.58 88 1011.8
20260508064504 16 283 4.8 12.9 0.03 0.58 0.58 88 1011.7
20260508064004 16 270 6.4 12.9 0.03 0.58 0.58 88 1011.7
20260508063504 16 301 3.2 11.3 0.03 0.58 0.58 89 1011.6
20260508063004 16 292 1.6 14.5 0.03 0.58 0.58 90 1011.7
20260508062504 16 290 8.0 14.5 0.03 0.58 0.58 90 1011.7
20260508062004 16 303 8.0 16.1 0.03 0.58 0.58 90 1011.6
20260508061503 16 292 11.3 16.1 0.03 0.58 0.58 90 1011.5
20260508061003 16 281 9.7 12.9 0.00 0.56 0.56 91 1011.6
20260508060504 15 270 8.0 12.9 0.00 0.56 0.56 91 1011.5
20260508060004 15 293 8.0 14.5 0.00 0.56 0.56 91 1011.5
20260508055504 15 277 4.8 12.9 0.00 0.56 0.56 92 1011.3
20260508055004 15 291 9.7 14.5 0.00 0.56 0.56 92 1011.4
20260508054503 15 291 8.0 16.1 0.00 0.56 0.56 92 1011.2
20260508054003 15 290 8.0 12.9 0.00 0.56 0.56 92 1011.1
20260508053004 15 299 8.0 12.9 0.00 0.56 0.56 92 1011.0
20260508052503 15 281 8.0 12.9 0.00 0.56 0.56 92 1011.0
20260508052004 15 296 4.8 11.3 0.03 0.56 0.56 92 1010.8
20260508051504 15 267 4.8 9.7 0.03 0.56 0.56 92 1010.8
20260508050504 15 277 8.0 16.1 0.05 0.56 0.56 92 1010.8
20260508050003 15 280 9.7 12.9 0.10 0.56 0.56 92 1010.9
20260508045503 15 264 6.4 11.3 0.15 0.56 0.56 92 1010.8
20260508045003 15 271 6.4 9.7 0.20 0.56 0.56 92 1010.7
20260508044504 15 290 4.8 11.3 0.23 0.56 0.56 91 1010.6
20260508044003 15 263 6.4 11.3 0.25 0.56 0.56 91 1010.5
20260508043504 15 284 6.4 11.3 0.30 0.56 0.56 91 1010.5
20260508043004 15 261 8.0 14.5 0.33 0.56 0.56 91 1010.5
20260508042504 15 254 3.2 9.7 0.33 0.56 0.56 91 1010.5
20260508041004 15 302 6.4 11.3 0.33 0.51 0.51 90 1010.5
20260508040504 15 278 3.2 8.0 0.33 0.51 0.51 90 1010.6
20260508040004 15 274 4.8 9.7 0.28 0.46 0.46 90 1010.6
20260508035503 15 276 4.8 4.8 0.23 0.41 0.41 90 1010.4
20260508035003 15 276 1.6 4.8 0.20 0.36 0.36 90 1010.4
20260508034504 15 288 4.8 12.9 0.18 0.33 0.33 90 1010.5
20260508034004 15 296 8.0 14.5 0.15 0.30 0.30 89 1010.6
20260508033504 15 280 8.0 16.1 0.10 0.25 0.25 89 1010.4
20260508033003 15 285 8.0 19.3 0.10 0.23 0.23 89 1010.4
20260508032503 15 287 8.0 14.5 0.08 0.23 0.23 88 1010.4
20260508031504 16 285 8.0 14.5 0.08 0.18 0.18 88 1010.4
20260508031004 16 286 9.7 14.5 0.10 0.18 0.18 88 1010.6
20260508030503 16 304 9.7 19.3 0.10 0.18 0.18 87 1010.5
20260508030004 16 289 9.7 16.1 0.13 0.18 0.18 87 1010.4
20260508025503 16 290 9.7 16.1 0.15 0.18 0.18 87 1010.3
20260508025003 16 298 9.7 19.3 0.15 0.15 0.15 87 1010.3
20260508024503 16 307 4.8 12.9 0.15 0.15 0.15 87 1010.3
20260508024003 16 304 4.8 11.3 0.15 0.15 0.15 87 1010.3
20260508023503 16 293 8.0 16.1 0.15 0.15 0.15 87 1010.2
20260508023003 16 293 4.8 12.9 0.15 0.15 0.15 87 1010.2
20260508022004 16 303 6.4 12.9 0.13 0.13 0.13 86 1010.3
20260508021504 16 275 8.0 14.5 0.10 0.10 0.10 86 1010.3
20260508021004 16 293 6.4 11.3 0.08 0.08 0.08 85 1010.2
20260508020503 16 315 4.8 8.0 0.08 0.08 0.08 84 1010.2
20260508020004 17 302 4.8 11.3 0.05 0.05 0.05 83 1010.3
20260508015004 17 12 4.8 4.8 0.03 0.03 0.03 82 1010.3
20260508014503 17 293 3.2 4.8 0.03 0.03 0.03 81 1010.2
20260508014004 17 285 4.8 4.8 0.03 0.03 0.03 80 1010.3
20260508013503 17 284 4.8 9.7 0.00 0.00 0.00 80 1010.2
20260508012504 18 314 3.2 9.7 0.00 0.00 0.00 80 1010.1
20260508012004 18 284 8.0 16.1 0.00 0.00 0.00 81 1010.1
20260508011504 18 257 4.8 9.7 0.00 0.00 0.00 82 1010.1
20260508011004 18 224 3.2 8.0 0.00 0.00 0.00 83 1010.1
20260508010504 18 209 3.2 16.1 0.00 0.00 0.00 83 1010.2
20260508010003 18 247 6.4 14.5 0.00 0.00 0.00 83 1010.2
20260508005503 18 217 4.8 11.3 0.00 0.00 0.00 82 1010.3
20260508005004 18 263 9.7 16.1 0.00 0.00 0.00 82 1010.2
20260508004504 18 205 4.8 12.9 0.00 0.00 0.00 82 1010.2
20260508003504 18 238 4.8 9.7 0.00 0.00 0.00 82 1010.1
20260508003004 18 211 3.2 11.3 0.00 0.00 0.00 82 1010.0
20260508002504 18 251 4.8 11.3 0.00 0.00 0.00 81 1010.0
20260508002003 18 259 4.8 9.7 0.00 0.00 0.00 80 1009.9
20260508001003 18 263 1.6 4.8 0.00 0.00 0.00 80 1009.7
20260508000504 18 263 3.2 8.0 0.00 0.00 0.00 80 1009.6
20260508000004 18 234 3.2 4.8 0.00 0.00 0.00 80 1009.8
20260507235503 18 225 4.8 9.7 0.00 0.00 0.00 80 1009.8
20260507235003 18 229 4.8 8.0 0.00 0.00 0.00 80 1009.8
20260507234503 18 249 4.8 4.8 0.00 0.00 0.00 80 1009.6
20260507233504 18 276 3.2 9.7 0.00 0.00 0.00 79 1009.5
20260507233004 18 263 1.6 4.8 0.00 0.00 0.00 79 1009.5
20260507232504 19 263 3.2 4.8 0.00 0.00 0.00 79 1009.6
20260507232003 19 224 3.2 4.8 0.00 0.00 0.00 79 1009.8
20260507231503 19 213 3.2 4.8 0.00 0.00 0.00 78 1009.8
20260507231003 19 213 3.2 4.8 0.00 0.00 0.00 77 1009.8
20260507230504 19 213 1.6 4.8 0.00 0.00 0.00 77 1009.8
20260507230004 19 213 1.6 4.8 0.00 0.00 0.00 76 1009.8
20260507225504 19 213 1.6 3.2 0.00 0.00 0.00 75 1009.9
20260507225004 19 213 1.6 4.8 0.00 0.00 0.00 75 1009.9
20260507224505 19 213 3.2 4.8 0.00 0.00 0.00 74 1009.9
20260507224003 19 213 1.6 3.2 0.00 0.00 0.00 74 1010.0
20260507223503 19 213 1.6 3.2 0.00 0.00 0.00 73 1010.0
20260507223003 20 213 0.0 1.6 0.00 0.00 0.00 72 1010.0
20260507222504 20 213 0.0 3.2 0.00 0.00 0.00 72 1010.0
20260507222004 20 213 3.2 9.7 0.00 0.00 0.00 70 1010.1
20260507221504 20 190 4.8 9.7 0.00 0.00 0.00 66 1010.2
20260507221004 20 90 3.2 4.8 0.00 0.00 0.00 61 1010.1
20260507220504 20 61 0.0 1.6 0.00 0.00 0.00 61 1010.1
20260507220004 20 60 1.6 3.2 0.00 0.00 0.00 61 1010.1
20260507215503 20 55 0.0 3.2 0.00 0.00 0.00 60 1010.2
20260507215003 20 55 0.0 1.6 0.00 0.00 0.00 60 1010.1
20260507214503 20 55 1.6 3.2 0.00 0.00 0.00 60 1010.1
20260507214004 20 55 1.6 4.8 0.00 0.00 0.00 60 1010.1
20260507213504 20 55 1.6 4.8 0.00 0.00 0.00 60 1010.1
20260507213004 20 55 1.6 4.8 0.00 0.00 0.00 60 1010.1
20260507212503 20 53 1.6 4.8 0.00 0.00 0.00 59 1010.1
20260507212003 20 51 0.0 4.8 0.00 0.00 0.00 59 1010.1
20260507211503 20 44 3.2 9.7 0.00 0.00 0.00 59 1010.2
20260507211004 20 66 1.6 3.2 0.00 0.00 0.00 59 1010.2
20260507210504 20 66 1.6 3.2 0.00 0.00 0.00 59 1010.2
20260507210004 20 67 3.2 4.8 0.00 0.00 0.00 58 1010.2
20260507205504 20 80 3.2 4.8 0.00 0.00 0.00 58 1010.3
20260507205004 20 69 4.8 8.0 0.00 0.00 0.00 58 1010.3
20260507204504 20 71 3.2 4.8 0.00 0.00 0.00 58 1010.3
20260507204004 20 69 3.2 8.0 0.00 0.00 0.00 58 1010.3
20260507202504 20 72 1.6 4.8 0.00 0.00 0.00 57 1010.4
20260507202005 20 72 3.2 4.8 0.00 0.00 0.00 57 1010.3
20260507201504 20 70 3.2 8.0 0.00 0.00 0.00 56 1010.3
20260507200004 20 31 4.8 9.7 0.00 0.00 0.00 57 1010.1
20260507195504 20 43 4.8 8.0 0.00 0.00 0.00 57 1010.3
20260507195003 20 31 4.8 9.7 0.00 0.00 0.00 57 1010.3
20260507194504 20 26 3.2 9.7 0.00 0.00 0.00 57 1010.3
20260507194004 20 87 1.6 4.8 0.00 0.00 0.00 57 1010.3
20260507193503 20 109 3.2 4.8 0.00 0.00 0.00 56 1010.3
20260507193004 20 109 3.2 4.8 0.00 0.00 0.00 56 1010.3
20260507192503 20 88 3.2 4.8 0.00 0.00 0.00 56 1010.3
20260507192004 20 63 1.6 4.8 0.00 0.00 0.00 55 1010.3
20260507191504 20 60 3.2 8.0 0.00 0.00 0.00 55 1010.3
20260507191004 20 64 3.2 8.0 0.00 0.00 0.00 55 1010.3
20260507190504 20 85 3.2 8.0 0.00 0.00 0.00 55 1010.2
20260507190005 20 73 3.2 8.0 0.00 0.00 0.00 55 1010.1
20260507185004 21 59 4.8 8.0 0.00 0.00 0.00 55 1010.1
20260507184504 21 70 3.2 4.8 0.00 0.00 0.00 54 1010.2
20260507184003 21 58 1.6 4.8 0.00 0.00 0.00 54 1010.2
20260507183504 21 45 1.6 4.8 0.00 0.00 0.00 54 1010.3
20260507183004 21 44 3.2 4.8 0.00 0.00 0.00 54 1010.3
20260507182004 21 78 1.6 4.8 0.00 0.00 0.00 54 1010.1
20260507181504 21 56 4.8 8.0 0.00 0.00 0.00 54 1010.1
20260507181004 21 63 3.2 8.0 0.00 0.00 0.00 54 1010.1
20260507180504 21 71 3.2 8.0 0.00 0.00 0.00 55 1010.0
20260507180004 21 94 4.8 9.7 0.00 0.00 0.00 55 1009.9
20260507175504 21 107 1.6 9.7 0.00 0.00 0.00 56 1009.9
20260507175004 21 88 4.8 12.9 0.00 0.00 0.00 55 1009.7
20260507174503 21 86 1.6 11.3 0.00 0.00 0.00 56 1009.6
20260507174003 21 73 4.8 8.0 0.00 0.00 0.00 56 1009.5
20260507173504 21 84 4.8 14.5 0.00 0.00 0.00 56 1009.4
20260507173004 21 56 6.4 14.5 0.00 0.00 0.00 56 1009.3
20260507172504 21 62 8.0 19.3 0.00 0.00 0.00 56 1009.4
20260507172004 21 70 8.0 14.5 0.00 0.00 0.00 56 1009.4
20260507171503 21 60 9.7 16.1 0.00 0.00 0.00 56 1009.5
20260507171004 21 54 4.8 14.5 0.00 0.00 0.00 57 1009.5
20260507170503 21 62 4.8 19.3 0.00 0.00 0.00 57 1009.6
20260507170004 21 68 4.8 16.1 0.00 0.00 0.00 58 1009.5
20260507165004 21 62 6.4 16.1 0.00 0.00 0.00 58 1009.8
20260507164504 21 76 4.8 12.9 0.00 0.00 0.00 59 1009.8
20260507164004 21 66 6.4 14.5 0.00 0.00 0.00 59 1009.9
20260507163504 21 72 4.8 14.5 0.00 0.00 0.00 59 1009.7
20260507162503 21 21 4.8 12.9 0.00 0.00 0.00 59 1009.7
20260507162004 21 39 4.8 16.1 0.00 0.00 0.00 58 1009.7
20260507161504 21 58 8.0 24.1 0.00 0.00 0.00 58 1009.9
20260507161003 21 64 11.3 20.9 0.00 0.00 0.00 58 1009.7
20260507160503 21 64 8.0 19.3 0.00 0.00 0.00 58 1009.8
20260507160003 21 52 6.4 14.5 0.00 0.00 0.00 57 1010.0
20260507155504 21 76 6.4 14.5 0.00 0.00 0.00 57 1010.0
20260507155004 21 45 3.2 14.5 0.00 0.00 0.00 56 1010.0
20260507154504 21 63 9.7 19.3 0.00 0.00 0.00 55 1010.0
20260507154003 21 66 8.0 19.3 0.00 0.00 0.00 56 1009.8
20260507153504 21 62 9.7 22.5 0.00 0.00 0.00 55 1009.7
20260507153004 21 57 6.4 24.1 0.00 0.00 0.00 56 1009.8
20260507152504 21 72 6.4 16.1 0.00 0.00 0.00 57 1009.9
20260507152003 21 55 6.4 16.1 0.00 0.00 0.00 58 1010.0
20260507151503 21 55 4.8 12.9 0.00 0.00 0.00 58 1010.2
20260507151004 21 66 8.0 14.5 0.00 0.00 0.00 58 1010.3
20260507150503 21 60 4.8 22.5 0.00 0.00 0.00 58 1010.3
20260507145503 21 67 4.8 19.3 0.00 0.00 0.00 59 1010.1
20260507145004 22 66 8.0 19.3 0.00 0.00 0.00 58 1010.1
20260507144004 21 44 9.7 24.1 0.00 0.00 0.00 58 1010.1
20260507143503 22 49 8.0 19.3 0.00 0.00 0.00 58 1010.2
20260507143004 22 39 9.7 19.3 0.00 0.00 0.00 58 1010.1
20260507142504 22 66 9.7 20.9 0.00 0.00 0.00 57 1010.1
20260507142003 22 49 9.7 19.3 0.00 0.00 0.00 57 1010.1
20260507141003 22 70 11.3 20.9 0.00 0.00 0.00 55 1010.1
20260507140503 22 80 6.4 19.3 0.00 0.00 0.00 55 1009.9
20260507135504 22 68 6.4 16.1 0.00 0.00 0.00 55 1010.1
20260507135004 22 59 4.8 14.5 0.00 0.00 0.00 56 1010.2
20260507134003 22 158 3.2 9.7 0.00 0.00 0.00 56 1010.5
20260507133504 22 157 4.8 9.7 0.00 0.00 0.00 56 1010.5
20260507132504 22 176 4.8 11.3 0.00 0.00 0.00 57 1010.5
20260507132004 22 179 8.0 11.3 0.00 0.00 0.00 56 1010.5
20260507131003 22 167 6.4 11.3 0.00 0.00 0.00 57 1010.7
20260507130504 22 155 3.2 8.0 0.00 0.00 0.00 56 1010.6
20260507130004 22 148 6.4 11.3 0.00 0.00 0.00 56 1010.6
20260507125004 22 120 4.8 12.9 0.00 0.00 0.00 57 1010.4
20260507124504 22 163 3.2 11.3 0.00 0.00 0.00 57 1010.6
20260507124004 22 175 4.8 9.7 0.00 0.03 0.00 57 1010.6
20260507123004 22 185 8.0 12.9 0.00 0.03 0.00 57 1010.7
20260507122504 22 163 8.0 11.3 0.00 0.05 0.00 56 1010.7
20260507121504 22 179 4.8 11.3 0.00 0.05 0.00 57 1010.7
20260507121004 22 158 8.0 11.3 0.00 0.05 0.00 57 1010.8
20260507120504 22 190 4.8 9.7 0.00 0.05 0.00 58 1010.8
20260507120005 22 182 4.8 14.5 0.00 0.05 0.00 58 1010.9
20260507115004 22 180 6.4 12.9 0.00 0.05 0.00 57 1010.8
20260507114004 22 170 4.8 11.3 0.00 0.05 0.00 58 1011.0
20260507113504 22 186 4.8 11.3 0.00 0.05 0.00 57 1011.1
20260507113004 22 182 4.8 12.9 0.00 0.05 0.00 55 1011.0
20260507112504 22 180 4.8 11.3 0.00 0.05 0.00 55 1011.0
20260507112004 22 163 6.4 14.5 0.00 0.05 0.00 55 1011.0
20260507111504 22 162 6.4 9.7 0.00 0.05 0.00 53 1011.1
20260507111004 23 152 6.4 12.9 0.00 0.05 0.00 54 1011.1
20260507110504 23 128 3.2 8.0 0.00 0.05 0.00 52 1011.2
20260507110003 23 133 4.8 9.7 0.00 0.05 0.00 54 1011.2
20260507105504 23 182 3.2 11.3 0.00 0.05 0.00 54 1011.3
20260507105004 23 147 6.4 11.3 0.00 0.05 0.00 53 1011.2
20260507104504 22 163 3.2 9.7 0.00 0.05 0.00 56 1011.2
20260507104004 22 153 6.4 11.3 0.00 0.05 0.00 58 1011.3
20260507103504 22 183 8.0 11.3 0.00 0.05 0.00 57 1011.4
20260507103004 22 183 4.8 9.7 0.00 0.05 0.00 58 1011.4
20260507102504 23 162 8.0 11.3 0.00 0.05 0.00 57 1011.5
20260507101503 23 175 4.8 12.9 0.00 0.05 0.00 58 1011.5
20260507101004 23 124 3.2 8.0 0.00 0.05 0.00 57 1011.5
20260507100504 22 130 4.8 11.3 0.00 0.05 0.00 55 1011.5
20260507100004 22 151 3.2 4.8 0.00 0.05 0.00 58 1011.5
20260507095004 22 172 4.8 11.3 0.00 0.05 0.00 60 1011.6
20260507094504 22 118 4.8 9.7 0.00 0.05 0.00 62 1011.5
20260507094004 22 109 3.2 4.8 0.00 0.05 0.00 61 1011.6
20260507093504 22 122 1.6 9.7 0.00 0.05 0.00 65 1011.7
20260507093004 21 125 4.8 9.7 0.00 0.05 0.00 66 1011.7
20260507092504 21 358 8.0 12.9 0.00 0.05 0.00 66 1011.8
20260507092003 21 23 4.8 11.3 0.00 0.05 0.00 69 1011.9
20260507091004 20 186 3.2 8.0 0.00 0.05 0.00 73 1012.0
20260507090504 20 161 3.2 8.0 0.00 0.05 0.00 73 1011.9
20260507090004 19 161 3.2 8.0 0.00 0.05 0.00 75 1011.9
20260507085503 19 160 3.2 9.7 0.00 0.05 0.00 75 1011.9
20260507085004 19 146 4.8 9.7 0.00 0.05 0.00 75 1012.1
20260507084503 19 179 6.4 11.3 0.00 0.05 0.00 76 1012.0
20260507083504 19 150 6.4 12.9 0.00 0.05 0.00 75 1011.9
20260507082504 20 114 8.0 14.5 0.00 0.05 0.00 71 1011.7
20260507082004 20 132 8.0 12.9 0.00 0.05 0.00 71 1011.7
20260507081504 20 144 3.2 4.8 0.00 0.05 0.00 71 1011.6
20260507081004 20 236 3.2 4.8 0.00 0.05 0.00 73 1011.6
20260507080503 19 254 1.6 4.8 0.00 0.05 0.00 74 1011.6
20260507075503 18 278 0.0 3.2 0.00 0.05 0.00 78 1011.6
20260507074504 18 278 0.0 0.0 0.00 0.05 0.00 81 1011.7
20260507074004 18 278 0.0 4.8 0.00 0.05 0.00 82 1011.7
20260507073503 17 278 0.0 3.2 0.00 0.05 0.00 83 1012.0